Location: Fours
(44.3167°N, 6.7000°E)
Time: 09:41:12
(UTC+00:00)

Genesis I - Pass Details

Date: 16 October 2021
Orbit: 469 x 548 km, 64.5° (Epoch: 07 December)

Event Time Altitude Azimuth Distance (km) Brightness Sun altitude
Rises 17:31:08 0° 328° (NNW) 2,719 7.3 -8.6°
Reaches altitude 10° 17:33:23 10° 333° (NNW) 1,827 6.3 -9.0°
Maximum altitude 17:37:25 53° 51° (NE) 679 3.5 -9.7°
Drops below altitude 10° 17:41:25 10° 129° (SE) 1,814 5.5 -10.4°
Enters shadow 17:42:08 - 131° (SE) 2,090 5.8 -10.6°
